Find Starlink 5863

NORAD ID: 55922 Int'l Des: 2023-037 Owner: SPXS Country: US Constellation: starlink operational
LEOCIRCULAR

Live Position

Loading 3D Globe...

About Starlink 5863

Description loading...

Upcoming Passes

Passes for default location (London). Set your location on the main map for personalized predictions.

Altitude History

Loading altitude history...

Two-Line Element Set

1 55922U 23037J 26121.53581275 -.00000522 00000-0 -35969-4 0 9993
2 55922 70.0003 171.1868 0003411 268.7049 91.3719 14.98331562171407
Epoch: May 1, 2026 • Age: 15 hours

Current Status

Altitude 577.1 km
Velocity 7.57 km/s
Sub-Earth Point 33.15°N, 57.01°E
Launch Date Mar 17, 2023
Age 3.1 years
Type internet

Technical Details

Classification Payload
Mass 305.00 kg
Dry Mass 290.00 kg
Total Mass 305.00 kg
Length 0.20 m
Diameter 2.80 m
Span 9.00 m
Shape Box + pan
Manufacturer SPXS
Bus Type Starlink
Phase Status In Orbit
Owner/State SPXS/US

Most Searched